Location: Foligno
(42.9600°N, 12.7050°E)
Time: 01:21:01
(UTC+02:00)

ISS - Pass Details

Date: 20 July 2018
Orbit: 402 x 408 km, 51.6° (Epoch: 18 July)

Event Time Altitude Azimuth Distance (km) Brightness Sun altitude
Rises 00:37:13 0° 279° (W) 2,321 0.3 -25.7°
Reaches altitude 10° 00:39:38 10° 296° (WNW) 1,464 -0.6 -25.8°
Maximum altitude 00:42:12 21° 348° (NNW) 981 -1.1 -25.9°
Drops below altitude 10° 00:44:47 10° 40° (NE) 1,468 -0.5 -25.9°
Sets 00:47:13 0° 57° (ENE) 2,331 0.4 -26.0°
